Location: Bannatyne
(13.0833°N, 59.5333°W)
Time: 18:00:52
(UTC+00:00)

Vanguard 3 - Pass Details

Date: 25 January 2020
Orbit: 508 x 3263 km, 33.3° (Epoch: 25 February)

Event Time Altitude Azimuth Distance (km) Brightness Sun altitude
Rises 17:36:49 0° 219° (SW) 5,312 11.9 51.5°
Reaches altitude 10° 17:39:55 10° 214° (SW) 4,631 11.9 51.1°
Maximum altitude 17:53:51 56° 139° (SE) 3,270 11.0 49.1°
Drops below altitude 10° 18:13:02 10° 67° (ENE) 6,191 11.3 46.0°
Sets 18:17:55 0° 64° (ENE) 7,140 11.6 45.1°
